sat.trackr.live / text

‹ back to catalog

STARLINK-5832

NORAD 57063 · 2023-088R

PAYLOAD ACTIVE UNKNOWN

§ Identity

Operator
Country
US
Launch date
2023-06-22
Launch site
AFWTR
Launch vehicle
Mass (kg)
RCS (m²)

Purposes: comms

External: N2YO · Heavens-Above · Gunter

§ Orbital elements

Epoch: 2026-09-20T22:33:09.822528Z

Period
94.27 min
Inclination
42.9987°
Eccentricity
0.0001014
Mean motion
15.27575077 rev/d
Perigee alt
482.4 km
Apogee alt
483.8 km
Semi-major
6,861.2 km
B*
2.0792e-6
RAAN
87.9613°
Arg perigee
252.3161°
Mean anomaly
107.7580°
Rev number
18,019

§ Raw data

STARLINK-58321 57063U 23088R   26263.93969702 -.00000205  00000+0  20792-5 0  99982 57063  42.9987  87.9613 0001014 252.3161 107.7580 15.27575077180195

JSON: /api/v1/satellites/57063 · /tle

For live sub-satellite position, see the globe view (requires WebGL).

§ Visibility from observer

Set your observer location to see the next 7 days of passes ≥ 10°. The values pass through the URL so the page stays shareable.

No JS? Fill the form by hand. The geolocation button needs JavaScript.